ATLAS D DEB, 2329

Orbit data source: Space-Track

ATLAS D DEB, 2329 is space debris in LEO originally from a launch on Thu, 14 Jul 1966 UTC launched from the Air Force Western Test Range (AFWTR). Debris objects in space refer to the collection of defunct objects orbiting the Earth. Examples of debris include non-operational satellites, rocket bodies, and fragments generated from explosions, collisions, or faulty payload assembly.

Loading next visibility...
Identifier
2329, 1966-063D
Orbit
LEO
Country
Flag of USUS
Related business
Manufacturer
Goodyear
Mission
Spacecraft
Bus & Motor
CONTAINER, Unknown motor
Mass
2 kg wet, 2 kg dry
Launch date (UTC)
1966-07-14 (59 years ago)
Launch vehicle
Unknown
Launch site
Air Force Western Test Range (AFWTR)
Object type
Payload
Rocket body
Debris
Shape & HBR
Unknown
Radar Cross Section
Medium (>0.1 m² and <1 m²)

Expand to show TLE details & history
Last TLE update: 6 hours ago

TLE from 6 hours ago
0 ATLAS D DEB
1  2329U 66063D   25308.04714219  .00000942  00000-0  52023-3 0  9993
2  2329 144.2870  38.2594 0021990  55.4122 114.6073 13.92227495990863
Epoch: 2025-11-04T01:07Z
TLE epoch observation values (Epoch: 2025-11-04T01:07:53.085Z)
Latitude
5.66619°
Longitude
165.63937°
Altitude
926.031 km
Speed
7.388 km/s
True Right ascension
15h 04m 36s
True Declination
5° 37' 60"
Sunlit
Object was in daylight at epoch
Visualization orbit readout
Latitude
Unknown
Longitude
Unknown
Altitude
Unknown
Speed
Unknown
Apparent Right ascension
Unknown
Apparent Declination
Unknown
Sunlit
N/A
Visualization observer readout
Local Sidereal Time
03:20:46
Azimuth
Unknown
Elevation
Unknown
Doppler factor
Unknown
Orbital elements
Apogee altitude
939.847 km
Perigee altitude
907.734 km
Semi-major axis
7,301.927 km
Eccentricity
0.0022
Inclination
144.287°
RAAN
38.2594°
Arg. of periapsis
55.4122°
True anomaly
114.83614°
Mean anomaly
114.6073°
Eccentric anomaly
114.72175°
Mean motion
3.47846 °/min
Orbital period
103.49 mins
BSTAR
0.00052023
Loading maneuver chart data...
Computing Atmospheric mass density...
Loading historical data...
Loading historical data...
Loading historical data...
Loading historical data...
Loading historical data...
Loading historical data...
Loading historical data...

Documentation

Showing up to 5 results
|